PBO Station Position Time Series. Reference Frame : NAM14
Format Version,1.1.1
4-character ID,LBC1
Station name,Long_Beach1SCIGN
Begin Date, 1998-10-23
End Date, 2023-06-26
Release Date, 2023-06-27
Reference position, 33.8320696894 North Latitude, -118.1371837350 East Longitude, -21.95031 meters elevation,
Date, North (mm), East (mm), Vertical (mm), North Std. Deviation (mm), East Std. Deviation (mm),              Vertical Std. Deviation (mm), Quality,
1998-10-23,0.00, 0.00, 0.00, 2.49, 2.22, 9.66, repro,
1998-10-24,1.36, 0.96, 11.29, 2.44, 2.15, 9.62, repro,
1998-10-25,3.18, 1.70, -0.84, 2.39, 2.23, 9.86, repro,
1998-10-26,2.24, -2.12, 26.46, 2.43, 2.21, 9.60, repro,
1998-10-27,2.58, 1.45, 12.79, 2.40, 2.21, 9.58, repro,
1998-10-28,0.53, 1.76, 10.12, 2.42, 2.23, 9.79, repro,
1998-10-29,4.02, -0.08, 25.01, 2.27, 2.04, 9.06, repro,
1998-10-30,2.22, -1.63, 13.60, 2.32, 2.09, 9.39, repro,
1998-10-31,1.35, 1.25, 14.36, 2.39, 2.15, 9.43, repro,
1998-11-01,1.66, 0.63, 15.71, 2.40, 2.10, 9.49, repro,
1998-11-02,-1.44, 0.88, 21.37, 2.61, 2.26, 10.40, repro,
1998-11-03,-2.93, 101.25, 55.62, 15.64, 25.51, 46.98, repro,
1998-11-04,1.16, -0.26, 23.05, 2.44, 2.21, 9.57, repro,
1998-11-05,0.34, -1.40, 24.57, 2.52, 2.42, 10.05, repro,
1998-11-06,1.09, -1.01, 25.34, 2.28, 2.08, 9.14, repro,
1998-11-07,1.73, -0.96, 18.94, 2.41, 2.17, 9.80, repro,
1998-11-08,1.79, 3.05, 20.14, 2.31, 2.11, 9.39, repro,
1998-11-09,3.02, -0.12, 17.62, 2.27, 2.02, 9.06, repro,
1998-11-10,0.50, 0.21, 24.90, 2.34, 2.08, 9.21, repro,
1998-11-11,2.67, 0.97, 21.01, 2.37, 2.10, 9.27, repro,
1998-11-12,2.24, 0.38, 16.14, 2.32, 2.04, 9.22, repro,
1998-11-13,2.57, -2.08, 22.45, 2.39, 2.07, 9.41, repro,
1998-11-14,1.63, -1.21, 23.76, 2.38, 2.08, 9.53, repro,
1998-11-15,1.66, -1.53, 26.79, 2.31, 2.01, 9.05, repro,
1998-11-16,2.58, -1.75, 25.98, 2.28, 2.02, 9.06, repro,
1998-11-17,0.70, -1.93, 24.66, 2.40, 2.06, 9.35, repro,
1998-11-18,2.89, -1.68, 24.14, 2.30, 2.09, 9.26, repro,
1998-11-19,2.61, -2.83, 22.01, 2.33, 2.05, 9.17, repro,
1998-11-20,3.49, -2.16, 20.05, 2.35, 2.08, 9.16, repro,
1998-11-21,2.41, -0.92, 28.23, 2.33, 2.03, 9.16, repro,
1998-11-22,3.47, -1.67, 31.24, 2.28, 2.04, 9.04, repro,
1998-11-23,2.15, -1.89, 39.18, 2.30, 2.01, 8.92, repro,
1998-11-24,2.07, -1.40, 19.87, 2.28, 2.11, 9.23, repro,
1998-11-25,2.35, -3.64, 29.49, 2.28, 2.17, 9.57, repro,
1998-11-26,2.15, -2.76, 25.80, 2.30, 2.05, 9.17, repro,
1998-11-27,2.45, -1.42, 36.28, 2.36, 2.07, 9.38, repro,
1998-11-28,3.67, -2.16, 21.63, 2.37, 2.07, 9.43, repro,
1998-11-29,1.19, -2.58, 30.03, 2.30, 2.01, 9.08, repro,
1998-11-30,3.52, -3.46, 31.38, 2.38, 2.08, 9.19, repro,
1998-12-01,3.73, -1.70, 19.34, 2.30, 2.06, 8.97, repro,
1998-12-02,3.02, -2.25, 31.13, 2.29, 2.03, 8.99, repro,
1998-12-03,3.89, -1.56, 30.33, 2.32, 2.03, 9.18, repro,
1998-12-04,0.59, -3.83, 33.58, 2.40, 2.07, 9.31, repro,
1998-12-05,2.56, -2.84, 28.14, 2.38, 2.12, 9.20, repro,
1998-12-06,2.57, -3.34, 25.86, 2.24, 2.05, 9.04, repro,
1998-12-07,1.61, -1.64, 25.84, 2.39, 2.27, 9.63, repro,
1998-12-08,-0.03, -1.15, 22.40, 3.14, 3.37, 15.13, repro,
1998-12-09,1.74, -2.74, 21.87, 2.30, 2.11, 9.22, repro,
1998-12-10,2.86, -2.63, 26.88, 2.32, 2.17, 9.39, repro,
1998-12-11,3.03, -2.35, 29.96, 2.45, 2.41, 10.07, repro,
1998-12-12,3.05, -5.60, 41.60, 2.47, 2.42, 10.47, repro,
1998-12-13,2.95, -2.06, 20.57, 2.45, 2.35, 10.44, repro,
1998-12-14,3.71, -0.43, 30.69, 2.68, 2.54, 11.40, repro,
1998-12-15,2.27, -2.78, 29.65, 2.40, 2.31, 10.31, repro,
1998-12-16,3.75, -2.26, 20.75, 2.50, 2.39, 10.48, repro,
1998-12-17,2.37, -1.28, 19.83, 2.27, 2.10, 9.44, repro,
1998-12-18,3.68, -0.93, 30.57, 2.46, 2.10, 9.90, repro,
1998-12-19,1.10, -1.77, 31.54, 2.26, 2.08, 9.05, repro,
1998-12-20,2.65, -1.83, 31.80, 2.53, 2.17, 10.85, repro,
1998-12-21,-0.46, -3.22, 36.64, 2.38, 2.29, 9.68, repro,
1998-12-22,0.98, -1.89, 32.78, 2.47, 2.21, 9.81, repro,
1998-12-23,1.17, -1.33, 20.16, 2.37, 2.16, 9.30, repro,
1998-12-24,2.28, -0.79, 29.57, 2.56, 2.34, 10.36, repro,
1998-12-25,2.67, 0.34, 26.26, 2.47, 2.36, 10.56, repro,
1998-12-26,1.05, -4.44, 38.51, 2.44, 2.23, 9.64, repro,
1998-12-27,-0.98, -4.46, 37.13, 2.44, 2.15, 9.54, repro,
1998-12-28,3.16, -2.33, 29.81, 2.38, 2.14, 9.49, repro,
1998-12-29,3.42, -0.37, 19.10, 2.29, 2.10, 9.30, repro,
1998-12-30,1.47, -0.41, 31.26, 2.42, 2.37, 9.77, repro,
1998-12-31,2.31, -0.53, 34.24, 2.35, 2.19, 9.37, repro,
1999-01-01,0.99, -3.39, 23.89, 2.36, 2.12, 9.61, repro,
1999-01-02,3.94, -1.61, 32.06, 2.42, 2.18, 9.64, repro,
1999-01-03,1.08, -2.67, 31.09, 2.37, 2.21, 9.73, repro,
1999-01-04,2.43, 1.23, 21.31, 2.57, 2.26, 9.72, repro,
1999-01-05,3.16, 1.27, 30.87, 2.40, 2.29, 9.96, repro,
1999-01-06,1.75, -0.44, 31.06, 2.34, 2.15, 9.54, repro,
1999-01-07,2.07, -4.70, 31.85, 2.28, 2.04, 9.13, repro,
1999-01-08,1.07, -0.41, 30.56, 2.36, 2.08, 9.73, repro,
1999-01-09,2.22, -0.34, 23.11, 2.60, 2.27, 10.59, repro,
1999-01-10,1.63, -1.53, 24.73, 2.41, 2.16, 9.91, repro,
1999-01-11,0.43, -0.62, 31.18, 2.44, 2.20, 10.15, repro,
1999-01-12,1.02, -6.03, 47.93, 2.56, 2.46, 10.97, repro,
1999-01-13,2.87, -2.18, 39.60, 2.47, 2.07, 9.88, repro,
1999-01-14,1.38, -3.09, 38.40, 2.52, 2.16, 10.35, repro,
1999-01-15,4.58, -2.57, 27.82, 2.48, 2.17, 9.62, repro,
1999-01-16,1.38, 0.41, 25.20, 2.30, 2.06, 9.03, repro,
1999-01-17,1.38, -0.15, 24.67, 2.45, 2.15, 9.48, repro,
1999-01-18,3.45, -0.73, 26.14, 2.32, 2.02, 9.10, repro,
1999-01-19,2.61, -0.67, 28.50, 2.29, 2.02, 9.12, repro,
1999-01-20,-1.14, -2.27, 28.41, 2.39, 2.07, 9.36, repro,
1999-01-21,-0.55, -1.68, 29.67, 2.44, 2.18, 9.59, repro,
1999-01-22,1.74, 0.73, 25.23, 2.29, 2.06, 9.06, repro,
1999-01-23,3.21, -0.90, 37.14, 2.49, 2.23, 10.13, repro,
1999-01-24,2.09, -0.88, 29.64, 2.43, 2.05, 9.73, repro,
1999-01-25,0.45, -1.17, 37.99, 2.45, 2.18, 9.91, repro,
1999-01-26,-1.01, -4.08, 31.92, 2.53, 2.14, 10.24, repro,
1999-01-27,-2.26, -2.41, 28.73, 2.60, 2.23, 10.57, repro,
1999-01-28,1.05, -1.51, 26.69, 2.38, 2.14, 9.48, repro,
1999-01-29,1.98, -2.14, 41.74, 2.44, 2.06, 9.67, repro,
1999-01-30,0.29, -2.09, 35.60, 2.58, 2.35, 11.08, repro,
1999-01-31,1.23, -1.30, 36.90, 2.42, 2.13, 9.66, repro,
1999-02-01,2.48, -3.28, 44.20, 2.33, 2.19, 9.62, repro,
1999-02-02,2.21, -0.16, 38.95, 2.42, 2.09, 9.76, repro,
1999-02-03,4.88, -1.68, 36.10, 2.46, 2.06, 9.83, repro,
1999-02-04,0.13, -1.99, 43.86, 2.60, 2.17, 10.34, repro,
1999-02-05,2.40, -4.16, 38.67, 2.40, 2.10, 9.87, repro,
1999-02-06,2.57, -2.17, 48.31, 2.43, 2.19, 10.34, repro,
1999-02-07,0.61, -2.50, 37.82, 2.39, 2.15, 9.90, repro,
1999-02-08,1.27, -2.66, 37.97, 2.26, 2.02, 9.14, repro,
1999-02-09,1.59, -1.70, 26.40, 2.66, 2.39, 11.40, repro,
1999-02-10,0.29, -1.05, 40.81, 2.37, 2.13, 9.83, repro,
1999-02-11,3.80, -0.53, 24.01, 2.40, 2.10, 9.66, repro,
1999-02-12,3.13, -2.59, 37.27, 2.67, 2.32, 11.14, repro,
1999-02-13,3.74, 0.45, 10.39, 2.37, 2.14, 9.87, repro,
1999-02-14,1.20, -0.23, 22.13, 2.41, 2.15, 9.88, repro,
1999-02-15,2.03, -0.49, 32.15, 2.38, 2.07, 9.51, repro,
1999-02-16,1.40, -1.02, 35.12, 2.48, 2.18, 10.37, repro,
1999-02-17,1.57, -3.13, 39.64, 2.38, 2.05, 9.46, repro,
1999-02-18,1.12, -3.33, 53.25, 2.49, 2.16, 10.28, repro,
1999-02-19,4.01, -0.44, 33.85, 2.47, 2.15, 10.11, repro,
1999-02-20,2.22, 0.22, 30.65, 2.44, 2.13, 10.04, repro,
1999-02-21,3.41, -0.55, 31.53, 2.48, 2.24, 10.26, repro,
1999-02-22,2.73, 0.04, 27.97, 2.45, 2.07, 9.79, repro,
1999-02-23,3.21, -0.69, 24.94, 2.27, 2.00, 8.98, repro,
1999-02-24,1.15, -1.48, 26.25, 2.29, 2.02, 9.27, repro,
1999-02-25,3.08, -1.07, 27.98, 2.29, 2.02, 9.22, repro,
1999-02-26,1.71, -3.16, 42.41, 2.37, 2.05, 9.34, repro,
1999-02-27,1.54, -0.16, 35.26, 2.42, 2.07, 9.72, repro,
1999-02-28,2.27, -1.56, 36.07, 2.28, 2.03, 9.12, repro,
1999-03-01,0.57, -1.44, 32.78, 2.34, 2.02, 9.24, repro,
1999-03-02,0.35, -0.29, 27.20, 2.31, 2.02, 9.16, repro,
1999-03-03,2.20, 0.39, 24.47, 2.30, 2.02, 9.13, repro,
1999-03-04,0.98, -1.55, 36.56, 2.29, 2.01, 9.06, repro,
1999-03-05,1.56, 0.30, 23.00, 2.26, 2.04, 9.20, repro,
1999-03-06,1.33, -0.84, 16.59, 2.39, 2.18, 9.76, repro,
1999-03-07,-0.15, -1.78, 28.58, 2.61, 2.38, 10.78, repro,
1999-03-08,0.56, -1.53, 31.99, 2.34, 2.02, 9.37, repro,
1999-03-09,1.10, -2.14, 35.60, 2.43, 2.15, 9.74, repro,
1999-03-10,1.47, -1.00, 28.26, 2.29, 2.14, 9.20, repro,
1999-03-11,1.44, -2.29, 32.69, 2.27, 2.05, 9.20, repro,
1999-03-12,-0.13, -4.17, 18.45, 2.66, 2.40, 10.88, repro,
1999-03-13,-0.15, -3.84, 31.59, 2.34, 1.99, 9.19, repro,
1999-03-14,2.06, -3.26, 38.60, 2.37, 2.07, 9.48, repro,
1999-03-15,0.60, -4.39, 36.22, 2.47, 2.39, 10.34, repro,
1999-03-16,2.41, -2.69, 34.41, 2.41, 2.27, 10.04, repro,
1999-03-17,2.85, -1.63, 24.50, 2.51, 2.42, 10.31, repro,
1999-03-18,1.07, -1.66, 27.04, 2.31, 2.06, 9.43, repro,
1999-03-19,0.36, -1.92, 19.40, 2.55, 2.42, 10.63, repro,
1999-03-20,1.29, -1.49, 38.07, 2.49, 2.24, 10.12, repro,
1999-03-21,2.25, -3.19, 38.34, 2.33, 2.07, 9.48, repro,
1999-03-22,1.47, -2.99, 27.53, 2.42, 2.24, 9.75, repro,
1999-03-23,1.93, -3.76, 33.53, 2.51, 2.26, 10.10, repro,
1999-03-24,3.08, -3.18, 34.68, 2.40, 2.22, 9.67, repro,
1999-03-25,-0.33, -1.41, 36.04, 2.40, 2.34, 10.07, repro,
1999-03-26,1.65, -3.85, 34.63, 2.67, 2.56, 11.12, repro,
1999-03-27,0.63, -2.46, 32.77, 2.26, 2.05, 9.07, repro,
1999-03-28,-0.26, -2.54, 28.20, 2.41, 2.19, 9.70, repro,
1999-03-29,3.38, -1.22, 30.33, 2.59, 2.42, 10.62, repro,
1999-03-30,0.40, -2.55, 32.58, 2.57, 2.26, 10.36, repro,
1999-03-31,0.39, -1.16, 32.13, 2.57, 2.24, 10.39, repro,
1999-04-01,1.01, -2.29, 42.78, 2.38, 2.15, 9.62, repro,
1999-04-02,-0.05, -2.41, 35.90, 2.43, 2.04, 9.30, repro,
1999-04-03,0.43, 0.22, 27.95, 2.49, 2.13, 9.80, repro,
1999-04-04,0.96, -3.81, 39.63, 2.28, 2.03, 9.03, repro,
1999-04-05,0.45, -1.76, 30.22, 2.37, 2.08, 9.42, repro,
1999-04-06,-0.09, -1.38, 23.46, 2.40, 2.09, 9.74, repro,
1999-04-07,2.00, -1.97, 31.02, 2.30, 2.11, 9.39, repro,
1999-04-08,0.79, -1.98, 37.00, 2.38, 2.06, 9.80, repro,
1999-04-09,2.03, -2.37, 40.60, 2.24, 2.10, 9.27, repro,
1999-04-10,-0.84, -3.35, 44.45, 2.44, 2.14, 9.79, repro,
1999-04-11,1.70, -2.09, 34.00, 2.23, 1.99, 8.91, repro,
1999-04-12,2.87, -3.83, 26.70, 2.25, 2.06, 9.31, repro,
1999-04-13,2.43, -3.38, 39.55, 2.36, 2.20, 9.88, repro,
1999-04-14,0.23, -1.47, 34.18, 2.32, 2.03, 9.67, repro,
1999-04-15,-0.48, -1.35, 41.51, 2.40, 2.08, 9.74, repro,
1999-04-16,1.77, -1.66, 32.07, 2.37, 2.17, 10.17, repro,
1999-04-17,0.94, -1.87, 37.09, 2.46, 2.06, 9.88, repro,
1999-04-18,2.88, -3.65, 42.35, 2.40, 2.10, 10.04, repro,
1999-04-19,2.05, -1.91, 38.23, 2.29, 2.20, 9.71, repro,
1999-04-20,0.77, -2.73, 57.74, 2.23, 1.96, 9.07, repro,
1999-04-21,0.49, -1.53, 43.51, 2.27, 2.09, 9.44, repro,
1999-04-22,1.81, -2.39, 41.58, 2.30, 2.05, 9.50, repro,
1999-04-23,0.97, -1.83, 51.78, 2.31, 2.01, 9.26, repro,
1999-04-24,1.12, -2.22, 39.56, 2.39, 2.03, 9.58, repro,
1999-04-25,0.13, -1.99, 55.71, 2.43, 2.11, 9.95, repro,
1999-04-26,1.41, -1.42, 47.99, 2.39, 2.32, 10.40, repro,
1999-04-27,1.67, -0.56, 46.39, 2.48, 2.21, 10.01, repro,
1999-04-28,1.21, -0.35, 42.49, 2.19, 1.98, 8.76, repro,
1999-04-29,2.49, -2.35, 45.23, 2.31, 2.13, 9.40, repro,
1999-04-30,0.36, -0.71, 40.56, 2.30, 2.09, 9.27, repro,
1999-05-01,0.37, -1.29, 41.76, 2.48, 2.16, 10.12, repro,
1999-05-02,1.96, -1.83, 46.02, 2.33, 2.16, 9.81, repro,
1999-05-03,-0.17, -2.76, 61.22, 2.42, 2.26, 9.90, repro,
1999-05-04,2.71, -1.38, 40.98, 2.54, 2.23, 10.20, repro,
1999-05-05,2.20, -0.55, 41.85, 2.58, 2.26, 10.39, repro,
1999-05-06,1.32, -2.22, 38.93, 2.29, 2.07, 9.31, repro,
1999-05-07,1.66, -1.50, 39.90, 2.37, 2.00, 9.52, repro,
1999-05-08,1.22, -2.02, 33.19, 2.31, 2.08, 9.53, repro,
1999-05-09,2.03, -1.32, 31.73, 2.43, 2.17, 9.71, repro,
1999-05-10,1.28, -0.62, 32.78, 2.27, 2.05, 9.11, repro,
1999-05-11,1.36, -0.41, 27.82, 2.27, 2.06, 9.19, repro,
1999-05-12,0.76, -1.39, 31.36, 2.28, 2.08, 9.30, repro,
1999-05-13,-1.22, -1.31, 43.50, 2.42, 2.22, 9.97, repro,
1999-05-14,0.23, -0.47, 23.35, 2.50, 2.18, 10.14, repro,
1999-05-15,3.24, 0.17, 19.97, 2.33, 2.10, 9.56, repro,
1999-05-16,2.15, 0.70, 20.07, 2.27, 2.07, 9.08, repro,
1999-05-17,2.63, -1.54, 33.33, 2.39, 2.22, 9.98, repro,
1999-05-18,0.45, -1.25, 30.98, 2.39, 2.14, 9.69, repro,
1999-05-19,0.35, -2.07, 26.83, 2.41, 2.18, 9.91, repro,
1999-05-20,1.24, 0.06, 25.92, 2.59, 2.26, 10.39, repro,
1999-05-21,2.20, -0.81, 23.84, 2.29, 2.07, 9.33, repro,
1999-05-22,2.09, 0.62, 35.40, 2.31, 1.99, 9.24, repro,
1999-05-23,0.70, -1.17, 28.74, 2.27, 2.10, 9.29, repro,
1999-05-24,1.21, -1.74, 29.42, 2.31, 2.17, 9.39, repro,
1999-05-25,2.78, -0.67, 24.88, 2.27, 2.03, 9.35, repro,
1999-05-26,2.05, -0.42, 11.91, 2.49, 2.27, 10.49, repro,
1999-05-27,3.33, 0.75, 28.49, 2.34, 2.00, 9.49, repro,
1999-05-28,0.85, -1.99, 35.06, 2.30, 1.99, 9.45, repro,
1999-05-29,1.42, -0.14, 33.21, 2.31, 2.12, 9.50, repro,
1999-05-30,0.96, -1.08, 23.00, 2.40, 2.06, 9.62, repro,
1999-05-31,2.06, -0.50, 19.89, 2.35, 2.00, 9.49, repro,
1999-06-01,1.90, 0.09, 25.05, 2.33, 2.04, 9.13, repro,
1999-06-02,1.85, -1.96, 36.44, 2.38, 2.06, 9.49, repro,
1999-06-03,2.16, -0.88, 32.82, 2.37, 2.06, 9.61, repro,
1999-06-04,2.59, -0.57, 36.08, 2.38, 2.18, 9.71, repro,
1999-06-05,1.37, -0.91, 31.59, 2.34, 2.06, 9.78, repro,
1999-06-06,1.78, -0.61, 34.94, 2.35, 2.18, 9.45, repro,
1999-06-07,5.16, -0.42, 29.45, 2.34, 2.05, 9.10, repro,
1999-06-08,3.42, -1.18, 38.26, 2.29, 2.12, 9.48, repro,
1999-06-09,3.08, -0.99, 36.99, 2.44, 2.15, 10.14, repro,
1999-06-10,7.67, 3.81, 16.91, 4.23, 4.70, 22.22, repro,
1999-06-11,4.11, -1.23, 23.16, 2.27, 2.00, 9.27, repro,
1999-06-12,3.67, -2.18, 33.05, 2.26, 2.00, 9.11, repro,
1999-06-13,5.96, -0.71, 31.45, 2.33, 2.03, 9.41, repro,
1999-06-14,5.02, 0.27, 27.06, 2.58, 2.11, 10.04, repro,
1999-06-15,5.27, -4.18, 38.29, 2.36, 2.10, 9.87, repro,
1999-06-16,6.60, -1.22, 19.60, 2.32, 2.14, 9.61, repro,
1999-06-17,6.29, -2.57, 23.21, 2.23, 2.02, 9.13, repro,
1999-06-18,6.81, -1.23, 29.79, 2.24, 2.04, 9.12, repro,
1999-06-19,5.13, -0.77, 29.40, 2.40, 2.09, 9.54, repro,
1999-06-20,6.19, -1.98, 32.20, 2.36, 2.05, 9.84, repro,
1999-06-21,4.82, -1.05, 15.58, 2.38, 2.03, 9.70, repro,
1999-06-22,5.39, -0.67, 28.52, 2.50, 2.12, 10.32, repro,
1999-06-23,5.60, -1.03, 29.93, 2.30, 2.00, 9.48, repro,
1999-06-24,5.57, -0.67, 25.10, 2.41, 2.04, 9.70, repro,
1999-06-25,4.40, -0.23, 30.74, 2.41, 2.15, 9.87, repro,
1999-06-26,4.92, -0.51, 26.67, 2.40, 2.08, 9.82, repro,
1999-06-27,4.13, -0.66, 32.39, 2.41, 2.20, 10.39, repro,
1999-06-28,4.75, -2.96, 27.44, 2.40, 2.06, 9.69, repro,
1999-06-29,4.81, -1.66, 24.66, 2.51, 2.19, 10.19, repro,
1999-06-30,5.35, -1.19, 30.61, 2.36, 2.08, 9.93, repro,
1999-07-01,6.67, 0.92, 33.91, 2.49, 2.21, 10.70, repro,
1999-07-02,4.99, -0.87, 25.81, 2.33, 2.07, 9.82, repro,
1999-07-03,4.46, -1.38, 32.97, 2.35, 2.05, 9.81, repro,
1999-07-04,4.95, -0.80, 25.50, 2.27, 2.02, 9.36, repro,
1999-07-05,5.31, -2.48, 29.50, 2.37, 2.00, 9.76, repro,
1999-07-06,5.63, -3.43, 36.76, 2.31, 2.12, 9.83, repro,
1999-07-07,5.55, -2.36, 33.69, 2.41, 2.09, 9.74, repro,
1999-07-08,2.48, -2.99, 36.84, 2.35, 2.07, 9.57, repro,
1999-07-09,3.30, -3.15, 33.06, 2.39, 2.04, 9.41, repro,
1999-07-10,5.07, -1.48, 26.93, 2.32, 2.04, 9.45, repro,
1999-07-11,4.26, -1.27, 29.49, 2.59, 2.16, 10.34, repro,
1999-07-12,4.97, -1.50, 21.75, 2.28, 2.02, 9.24, repro,
1999-07-13,3.15, -2.64, 32.44, 2.30, 2.09, 9.61, repro,
1999-07-14,6.32, -0.74, 14.67, 2.40, 2.07, 9.89, repro,
1999-07-15,6.11, -1.78, 20.28, 2.36, 2.11, 10.15, repro,
1999-07-16,5.53, -2.86, 30.42, 2.34, 2.06, 9.96, repro,
1999-07-17,5.02, -1.21, 25.15, 2.30, 2.07, 9.66, repro,
1999-07-18,6.25, 0.45, 27.20, 2.52, 2.19, 10.54, repro,
1999-07-19,3.59, -2.29, 19.11, 2.48, 2.15, 10.41, repro,
1999-07-20,3.06, -1.99, 57.91, 2.60, 2.20, 10.35, repro,
1999-07-21,2.99, -2.08, 32.53, 2.50, 2.17, 10.20, repro,
1999-07-22,0.70, -0.57, 32.36, 2.43, 2.02, 9.83, repro,
1999-07-23,3.15, -1.32, 36.72, 2.39, 2.02, 9.71, repro,
1999-07-24,3.94, -1.04, 19.24, 2.42, 2.14, 10.03, repro,
1999-07-25,1.13, -0.12, 30.94, 2.42, 2.06, 9.79, repro,
1999-07-26,1.53, -2.14, 35.53, 2.56, 2.14, 9.93, repro,
1999-07-27,2.81, -1.59, 34.86, 2.58, 2.25, 10.45, repro,
1999-07-28,3.36, -2.07, 30.52, 2.26, 2.04, 9.17, repro,
1999-07-29,3.00, -1.75, 31.01, 2.49, 2.18, 9.89, repro,
1999-07-30,3.01, -0.29, 38.74, 2.39, 2.11, 9.42, repro,
1999-07-31,1.61, -1.94, 32.30, 2.48, 2.12, 10.06, repro,
1999-08-01,1.79, -4.04, 29.00, 2.21, 1.99, 9.01, repro,
1999-08-02,3.37, -1.40, 21.03, 2.45, 2.11, 9.90, repro,
1999-08-03,2.08, -2.45, 33.03, 2.36, 2.10, 9.73, repro,
1999-08-04,3.74, -0.56, 25.84, 2.56, 2.23, 10.87, repro,
1999-08-05,0.97, -0.17, 19.38, 2.62, 2.33, 10.37, repro,
1999-08-06,0.95, -1.72, 40.81, 2.33, 2.00, 9.29, repro,
1999-08-07,1.96, -1.07, 23.58, 2.58, 2.28, 10.48, repro,
1999-08-08,2.18, -2.50, 29.27, 2.37, 2.05, 9.67, repro,
1999-08-09,2.36, -0.74, 33.82, 2.51, 2.16, 9.89, repro,
1999-08-10,2.27, -1.48, 18.83, 2.53, 2.11, 10.05, repro,
1999-08-11,1.80, -0.70, 26.98, 2.45, 2.10, 10.11, repro,
1999-08-12,3.29, -1.70, 29.28, 2.36, 2.01, 9.64, repro,
1999-08-13,2.50, -1.55, 15.98, 2.40, 2.05, 9.92, repro,
1999-08-14,2.93, -0.53, 20.64, 2.23, 2.03, 9.07, repro,
1999-08-15,1.35, -0.35, 25.71, 2.59, 2.06, 10.26, repro,
1999-08-16,2.22, -2.56, 26.36, 2.28, 2.04, 9.32, repro,
1999-08-17,2.57, -1.56, 30.61, 2.35, 2.10, 9.85, repro,
1999-08-18,2.81, -0.68, 17.47, 2.29, 2.02, 9.59, repro,
1999-08-19,3.55, -0.47, 33.31, 2.31, 2.09, 9.75, repro,
1999-08-20,3.49, -0.89, 25.02, 2.50, 2.19, 10.37, repro,
1999-08-21,2.06, -1.11, 18.03, 2.28, 1.98, 9.35, repro,
1999-08-22,2.93, -0.77, 17.25, 2.28, 2.05, 9.46, repro,
1999-08-23,0.53, -4.15, 30.03, 2.57, 2.04, 10.11, repro,
1999-08-24,6.34, 2.76, 8.41, 2.44, 2.22, 10.70, repro,
1999-08-25,2.90, -1.75, 32.45, 2.46, 2.23, 10.30, repro,
1999-08-26,0.60, -0.45, 29.45, 2.54, 2.18, 10.75, repro,
1999-08-27,2.38, -0.64, 33.17, 2.44, 2.21, 10.17, repro,
1999-08-28,1.63, 0.14, 23.05, 2.38, 2.10, 9.67, repro,
1999-08-29,1.85, -3.13, 35.68, 2.69, 2.40, 12.36, repro,
1999-08-30,2.10, -1.19, 30.96, 2.62, 2.24, 10.80, repro,
1999-08-31,3.38, -1.23, 23.55, 2.47, 2.24, 10.28, repro,
1999-09-01,2.34, 0.19, 26.65, 2.58, 2.18, 10.55, repro,
1999-09-02,3.12, -1.94, 21.89, 2.38, 2.07, 9.59, repro,
1999-09-03,2.11, -1.81, 22.03, 2.46, 2.17, 10.12, repro,
1999-09-04,3.22, -0.55, 27.71, 2.46, 2.21, 9.87, repro,
1999-09-05,2.65, -0.79, 20.02, 2.38, 2.14, 9.86, repro,
1999-09-06,2.46, 0.62, 21.17, 2.41, 2.23, 10.13, repro,
1999-09-07,2.91, -0.64, 24.49, 2.77, 2.27, 11.58, repro,
1999-09-08,1.91, 0.59, 11.54, 2.58, 2.24, 10.79, repro,
1999-09-09,4.13, 0.10, 11.73, 2.48, 2.18, 10.16, repro,
1999-09-10,4.29, -0.64, 32.63, 2.36, 2.03, 9.31, repro,
1999-09-11,1.97, 1.62, 8.80, 2.56, 2.22, 10.22, repro,
1999-09-12,0.08, -1.41, 20.67, 2.41, 2.08, 9.55, repro,
1999-09-13,3.71, 1.65, 10.01, 2.35, 2.01, 9.56, repro,
1999-09-14,3.20, 1.07, 11.14, 2.35, 2.04, 9.44, repro,
1999-09-15,5.31, -0.39, 22.08, 2.44, 2.18, 9.97, repro,
1999-09-16,1.37, 0.20, 19.55, 2.39, 2.17, 9.80, repro,
1999-09-17,2.10, 0.38, 23.39, 2.45, 2.04, 9.71, repro,
1999-09-18,3.56, 1.20, 18.98, 2.46, 2.07, 9.87, repro,
1999-09-19,3.54, 1.18, 13.59, 2.42, 2.09, 9.58, repro,
1999-09-20,2.06, 0.13, 12.28, 2.41, 2.13, 9.67, repro,
1999-09-21,4.69, 2.40, 0.79, 2.48, 2.17, 10.43, repro,
1999-09-22,0.79, 0.49, 15.63, 2.58, 2.25, 10.28, repro,
1999-09-23,1.80, 0.87, 20.03, 2.43, 2.22, 9.95, repro,
1999-09-24,2.12, 0.37, 14.83, 2.49, 2.21, 10.11, repro,
1999-09-25,1.18, 0.71, 14.54, 2.42, 2.17, 9.94, repro,
1999-09-26,3.15, 0.89, 17.36, 2.58, 2.30, 10.59, repro,
1999-09-27,2.98, -0.20, 21.48, 2.55, 2.30, 10.58, repro,
1999-09-28,3.72, 0.22, 17.67, 2.63, 2.37, 10.90, repro,
1999-09-29,3.10, 0.55, 18.07, 2.76, 2.43, 11.28, repro,
1999-09-30,2.05, 1.71, 16.85, 2.82, 2.39, 11.60, repro,
1999-10-01,0.78, 1.10, 17.01, 2.68, 2.34, 10.95, repro,
1999-10-02,4.38, -0.30, 20.75, 2.49, 2.29, 10.80, repro,
1999-10-03,4.29, 1.35, 10.19, 2.53, 2.28, 10.11, repro,
1999-10-04,3.63, -0.23, 13.82, 2.39, 2.24, 10.26, repro,
1999-10-05,3.51, -0.83, 24.73, 2.55, 2.33, 10.33, repro,
1999-10-06,2.15, 1.24, 19.88, 2.37, 2.09, 9.54, repro,
1999-10-07,3.64, 0.56, 14.73, 2.55, 2.13, 10.38, repro,
1999-10-08,4.54, -0.39, 20.37, 2.46, 2.17, 10.40, repro,
1999-10-09,3.78, -0.86, 27.64, 2.48, 2.21, 9.80, repro,
1999-10-10,3.67, -0.92, 29.76, 2.40, 2.07, 9.45, repro,
1999-10-11,4.08, -0.65, 26.86, 2.35, 2.09, 9.42, repro,
1999-10-12,3.55, 0.26, 26.17, 2.40, 2.11, 9.53, repro,
1999-10-13,3.24, -1.35, 23.02, 2.43, 2.12, 9.83, repro,
1999-10-14,3.26, -0.77, 26.23, 2.36, 2.07, 9.36, repro,
1999-10-15,2.60, -0.86, 35.30, 2.42, 2.15, 9.41, repro,
1999-10-16,5.25, 0.29, 49.50, 2.40, 2.10, 9.62, repro,
1999-10-17,8.98, 2.09, 51.67, 2.64, 2.22, 10.61, repro,
1999-10-18,6.34, 0.23, 45.71, 2.57, 2.11, 10.31, repro,
1999-10-19,5.95, -0.41, 43.21, 2.61, 2.14, 10.10, repro,
1999-10-20,7.86, 0.28, 46.41, 2.35, 2.09, 9.42, repro,
1999-10-21,8.30, -0.50, 44.53, 2.42, 2.14, 9.42, repro,
1999-10-22,7.35, -0.91, 57.33, 2.71, 2.41, 10.93, repro,
1999-10-23,7.63, 0.29, 38.80, 2.34, 2.09, 9.43, repro,
1999-10-24,6.25, -0.84, 38.65, 2.43, 2.12, 9.83, repro,
1999-10-25,9.03, 1.11, 45.74, 2.39, 2.07, 9.90, repro,
1999-10-26,8.95, -0.20, 58.66, 2.33, 2.04, 9.25, repro,
1999-10-27,9.77, -0.76, 62.83, 2.44, 2.18, 9.87, repro,
1999-10-28,8.58, 0.21, 50.44, 2.48, 2.14, 9.71, repro,
1999-10-29,9.04, 0.80, 51.64, 2.53, 2.25, 10.27, repro,
1999-10-30,7.77, 1.44, 43.16, 2.34, 2.10, 9.53, repro,
1999-10-31,10.04, 1.60, 50.53, 2.55, 2.18, 10.10, repro,
1999-11-01,8.64, 0.43, 51.74, 2.51, 2.12, 9.96, repro,
1999-11-02,8.19, 0.41, 60.03, 2.45, 2.18, 9.85, repro,
1999-11-03,7.71, 0.44, 61.62, 2.71, 2.35, 10.80, repro,
1999-11-04,8.62, -0.63, 55.95, 2.57, 2.12, 10.33, repro,
1999-11-05,7.10, -0.32, 52.19, 2.42, 2.05, 9.44, repro,
1999-11-06,7.79, 1.36, 53.66, 2.52, 2.25, 10.56, repro,
1999-11-07,8.29, 0.82, 63.60, 2.44, 2.08, 9.62, repro,
1999-11-08,6.73, 1.47, 57.08, 2.47, 2.09, 9.94, repro,
1999-11-09,7.85, -0.48, 57.40, 2.42, 2.11, 9.45, repro,
1999-11-10,5.11, -0.45, 61.93, 2.33, 2.01, 9.46, repro,
1999-11-11,9.13, 1.62, 55.24, 2.38, 2.22, 9.94, repro,
1999-11-12,9.13, -0.15, 62.18, 2.39, 2.10, 9.68, repro,
1999-11-13,7.53, -0.47, 58.44, 2.41, 2.16, 9.54, repro,
1999-11-14,8.62, -1.67, 58.49, 2.31, 1.99, 9.41, repro,
1999-11-15,5.45, -1.70, 48.32, 2.53, 2.23, 10.23, repro,
1999-11-16,8.64, 0.69, 61.89, 2.39, 2.09, 9.59, repro,
1999-11-17,7.49, -0.19, 64.18, 2.33, 2.05, 9.59, repro,
1999-11-18,8.42, -0.96, 64.50, 2.41, 2.16, 9.73, repro,
1999-11-19,7.26, -0.67, 53.80, 2.38, 2.08, 9.38, repro,
1999-11-20,7.77, -1.65, 63.36, 2.36, 2.11, 9.43, repro,
1999-11-21,5.55, -1.78, 63.03, 2.54, 2.28, 10.20, repro,
1999-11-22,8.76, -1.27, 57.79, 2.49, 2.28, 10.37, repro,
1999-11-23,7.53, -1.11, 55.51, 2.67, 2.53, 11.09, repro,
1999-11-24,10.00, 2.06, 47.61, 2.95, 2.64, 11.62, repro,
1999-11-25,6.51, 0.96, 59.58, 2.60, 2.28, 10.50, repro,
1999-11-26,6.50, -0.79, 63.03, 2.50, 2.24, 10.22, repro,
1999-11-27,9.72, -2.20, 56.05, 2.58, 2.40, 10.75, repro,
1999-11-28,8.24, -0.16, 52.94, 2.28, 2.08, 9.29, repro,
1999-11-29,7.50, 0.10, 56.43, 2.37, 2.13, 9.56, repro,
1999-11-30,9.18, 1.05, 48.63, 2.51, 2.14, 10.17, repro,
1999-12-01,8.05, -0.19, 71.05, 2.57, 2.33, 10.39, repro,
1999-12-02,5.81, -1.04, 61.57, 2.28, 2.06, 9.25, repro,
1999-12-03,5.01, -1.31, 66.08, 2.59, 2.46, 10.54, repro,
1999-12-04,7.62, -0.95, 51.97, 2.53, 2.37, 10.27, repro,
1999-12-05,7.12, 0.02, 52.30, 2.33, 2.11, 9.46, repro,
1999-12-06,7.77, -0.57, 56.16, 2.53, 2.23, 10.20, repro,
1999-12-07,3.73, -2.44, 71.69, 2.43, 2.21, 10.03, repro,
1999-12-08,6.52, 6.03, 55.14, 2.89, 2.31, 11.14, repro,
1999-12-09,8.32, -0.04, 64.18, 2.44, 2.24, 9.93, repro,
1999-12-10,6.45, -2.15, 55.64, 2.32, 2.10, 9.30, repro,
1999-12-11,7.88, -0.76, 54.32, 2.37, 2.15, 9.35, repro,
1999-12-12,6.61, -2.77, 62.62, 2.56, 2.29, 10.43, repro,
1999-12-13,5.36, -1.88, 65.61, 2.55, 2.38, 10.01, repro,
1999-12-14,8.86, -3.11, 63.20, 2.48, 2.16, 9.82, repro,
1999-12-15,5.99, -0.41, 40.00, 2.51, 2.27, 9.90, repro,